Starlink 36929

operational
NORAD ID: 68067 Int'l Des: 2026-041 Owner: SPXS Country: US Constellation: starlink
LEOCIRCULAR

Starlink 36929について

説明を読み込み中...

リアルタイム位置

3D地球を読み込み中...

次回通過

高度履歴

Altitude vs Time

uPlot chart will show altitude changes over time

軌道要素

1 68067C 26041AD 26061.43590278 .00463630 00000+0 61770-3 0 618
2 68067 53.1641 99.7106 0007694 278.0213 111.1786 16.05390069 15
Epoch: Mar 2, 2026 • Age: 50 hours

現在のステータス

高度 268.6 km
速度 7.75 km/s
衛星直下点 -52.60°S, 177.46°E
打ち上げ日 Mar 2, 2026
運用期間 1 days
タイプ internet

技術仕様

分類 Payload
質量 575.00 kg
乾燥質量 530.00 kg
総質量 575.00 kg
長さ 0.30 m
直径 4.10 m
スパン 29.00 m
形状 Box + pan
製造者 SPXS
バスタイプ Starlink V2MO
フェーズステータス In Orbit
所有者/国 SPXS/US

大規模コンステレーション

Loading constellations...